When you browse on this site, cookies collect data to enhance your experience and personalize the content and advertising you see.
Visit our Privacy Policy to learn more. By continuing to use the site, you agree to this use of cookies and data.
  • In United Kingdom
  • List of Countries
  • For 7 days
  • Water Temperature
  • Weather Map
  • Weather Widgets
  • user-avatar
    Login

    Hourly Weather Newcastle

    Today, 3 June, Wednesday

    Time Temperature Precipitation Wind Pressure Humidity
    00:00 +14°C° 0 mm 2 mps 746 mmHg 67%
    01:00 +14°C° 0 mm 2 mps 746 mmHg 69%
    02:00 +14°C° 0 mm 2 mps 745 mmHg 72%
    03:00 +14°C° 0 mm 2 mps 745 mmHg 75%
    04:00 +14°C° 0.3 mm 2 mps 745 mmHg 80%
    05:00 +13°C° 0.3 mm 2 mps 744 mmHg 85%
    06:00 +12°C° 0 mm 3 mps 745 mmHg 92%
    07:00 +12°C° 1.4 mm 3 mps 744 mmHg 92%
    08:00 +12°C° 1.4 mm 4 mps 744 mmHg 92%
    09:00 +10°C° 1.4 mm 5 mps 744 mmHg 93%
    10:00 +12°C° 0.6 mm 5 mps 744 mmHg 92%
    11:00 +12°C° 0.6 mm 5 mps 745 mmHg 91%
    12:00 +12°C° 0.6 mm 5 mps 745 mmHg 90%
    13:00 +12°C° 0.2 mm 5 mps 745 mmHg 88%
    14:00 +12°C° 0.2 mm 5 mps 744 mmHg 86%
    15:00 +12°C° 0.2 mm 5 mps 744 mmHg 84%
    16:00 +12°C° 0 mm 5 mps 744 mmHg 82%
    17:00 +12°C° 0 mm 4 mps 744 mmHg 81%
    18:00 +11°C° 0 mm 4 mps 744 mmHg 79%
    19:00 +11°C° 0 mm 4 mps 744 mmHg 79%
    20:00 +10°C° 0 mm 3 mps 744 mmHg 78%
    21:00 +9°C° 0 mm 3 mps 744 mmHg 78%
    22:00 +9°C° 0 mm 3 mps 744 mmHg 79%
    23:00 +9°C° 0 mm 3 mps 744 mmHg 80%

    Tomorrow, 4 June, Thursday

    Time Temperature Precipitation Wind Pressure Humidity
    00:00 +9°C° 0 mm 3 mps 744 mmHg 81%
    01:00 +8°C° 0 mm 3 mps 743 mmHg 83%
    02:00 +7°C° 0 mm 3 mps 743 mmHg 85%
    03:00 +5°C° 0 mm 3 mps 742 mmHg 88%
    04:00 +7°C° 0 mm 3 mps 742 mmHg 84%
    05:00 +7°C° 0 mm 4 mps 742 mmHg 80%
    06:00 +7°C° 0 mm 4 mps 742 mmHg 76%
    07:00 +8°C° 0 mm 4 mps 741 mmHg 71%
    08:00 +10°C° 0 mm 4 mps 741 mmHg 66%
    09:00 +12°C° 0 mm 4 mps 741 mmHg 60%
    10:00 +12°C° 0 mm 4 mps 741 mmHg 60%
    11:00 +13°C° 0 mm 5 mps 740 mmHg 60%
    12:00 +13°C° 0 mm 5 mps 740 mmHg 60%
    13:00 +13°C° 0.1 mm 5 mps 740 mmHg 61%
    14:00 +13°C° 0.1 mm 5 mps 739 mmHg 61%
    15:00 +13°C° 0.1 mm 6 mps 739 mmHg 61%
    16:00 +13°C° 0.1 mm 5 mps 738 mmHg 67%
    17:00 +12°C° 0.1 mm 5 mps 738 mmHg 74%
    18:00 +11°C° 0.1 mm 4 mps 738 mmHg 80%
    19:00 +10°C° 0.1 mm 4 mps 737 mmHg 84%
    20:00 +9°C° 0.1 mm 3 mps 737 mmHg 89%
    21:00 +9°C° 0.1 mm 3 mps 737 mmHg 93%
    22:00 +8°C° 0.1 mm 3 mps 737 mmHg 93%
    23:00 +8°C° 0.1 mm 3 mps 736 mmHg 93%

    Day after tomorrow, 5 June, Friday

    Time Temperature Precipitation Wind Pressure Humidity
    00:00 +6°C° 0.1 mm 4 mps 736 mmHg 93%
    01:00 +6°C° 0 mm 4 mps 736 mmHg 93%
    02:00 +6°C° 0 mm 5 mps 735 mmHg 93%
    03:00 +6°C° 0 mm 5 mps 735 mmHg 92%
    04:00 +7°C° 0.1 mm 5 mps 735 mmHg 91%
    05:00 +7°C° 0.1 mm 5 mps 735 mmHg 90%
    06:00 +8°C° 0.1 mm 5 mps 735 mmHg 89%
    07:00 +8°C° 0.3 mm 5 mps 735 mmHg 85%
    08:00 +9°C° 0.3 mm 5 mps 735 mmHg 80%
    09:00 +10°C° 0.3 mm 5 mps 735 mmHg 76%
    10:00 +10°C° 0.4 mm 6 mps 735 mmHg 71%
    11:00 +11°C° 0.4 mm 7 mps 735 mmHg 67%
    12:00 +11°C° 0.4 mm 8 mps 734 mmHg 62%
    13:00 +12°C° 0.1 mm 8 mps 734 mmHg 59%
    14:00 +12°C° 0.1 mm 9 mps 734 mmHg 57%
    15:00 +12°C° 0.1 mm 10 mps 734 mmHg 54%
    16:00 +11°C° 0.1 mm 9 mps 734 mmHg 56%
    17:00 +10°C° 0.1 mm 9 mps 734 mmHg 58%
    18:00 +10°C° 0.1 mm 9 mps 734 mmHg 60%
    19:00 +9°C° 0 mm 8 mps 735 mmHg 62%
    20:00 +6°C° 0 mm 7 mps 735 mmHg 64%
    21:00 +5°C° 0 mm 6 mps 735 mmHg 66%
    22:00 +5°C° 0 mm 6 mps 735 mmHg 68%
    23:00 +5°C° 0 mm 7 mps 735 mmHg 71%

    6 June, Saturday

    Time Temperature Precipitation Wind Pressure Humidity
    00:00 +4°C° 0 mm 7 mps 735 mmHg 74%
    01:00 +4°C° 0 mm 7 mps 735 mmHg 74%
    02:00 +4°C° 0 mm 7 mps 735 mmHg 74%
    03:00 +4°C° 0 mm 8 mps 735 mmHg 75%
    04:00 +4°C° 0.1 mm 8 mps 735 mmHg 76%
    05:00 +5°C° 0.1 mm 9 mps 735 mmHg 77%
    06:00 +5°C° 0.1 mm 9 mps 734 mmHg 77%
    07:00 +5°C° 0.3 mm 10 mps 734 mmHg 79%
    08:00 +5°C° 0.3 mm 10 mps 735 mmHg 81%
    09:00 +6°C° 0.3 mm 10 mps 735 mmHg 83%
    10:00 +6°C° 0.6 mm 10 mps 735 mmHg 85%
    11:00 +6°C° 0.6 mm 9 mps 735 mmHg 87%
    12:00 +6°C° 0.6 mm 9 mps 735 mmHg 89%
    13:00 +6°C° 0.6 mm 9 mps 735 mmHg 90%
    14:00 +6°C° 0.6 mm 9 mps 735 mmHg 90%
    15:00 +7°C° 0.6 mm 8 mps 735 mmHg 91%
    16:00 +7°C° 0.2 mm 8 mps 735 mmHg 90%
    17:00 +7°C° 0.2 mm 8 mps 735 mmHg 89%
    18:00 +7°C° 0.2 mm 8 mps 735 mmHg 88%
    19:00 +8°C° 0.7 mm 7 mps 735 mmHg 90%
    20:00 +8°C° 0.7 mm 7 mps 736 mmHg 92%
    21:00 +8°C° 0.7 mm 6 mps 736 mmHg 94%
    22:00 +8°C° 0.2 mm 5 mps 736 mmHg 95%
    23:00 +8°C° 0.2 mm 5 mps 736 mmHg 95%

    7 June, Sunday

    Time Temperature Precipitation Wind Pressure Humidity
    00:00 +8°C° 0.2 mm 4 mps 736 mmHg 96%
    01:00 +8°C° 0.1 mm 3 mps 737 mmHg 95%
    02:00 +7°C° 0.1 mm 3 mps 737 mmHg 95%
    03:00 +7°C° 0.1 mm 2 mps 737 mmHg 95%
    04:00 +8°C° 0 mm 2 mps 738 mmHg 94%
    05:00 +9°C° 0 mm 3 mps 738 mmHg 93%
    06:00 +9°C° 0 mm 3 mps 738 mmHg 92%
    07:00 +10°C° 0.1 mm 4 mps 739 mmHg 89%
    08:00 +10°C° 0.1 mm 5 mps 739 mmHg 85%
    09:00 +11°C° 0.1 mm 6 mps 739 mmHg 82%
    10:00 +13°C° 0.2 mm 6 mps 740 mmHg 82%
    11:00 +13°C° 0.2 mm 6 mps 740 mmHg 82%
    12:00 +13°C° 0.2 mm 6 mps 740 mmHg 81%
    13:00 +13°C° 0.4 mm 6 mps 740 mmHg 83%
    14:00 +12°C° 0.4 mm 7 mps 740 mmHg 84%
    15:00 +12°C° 0.4 mm 7 mps 740 mmHg 85%
    16:00 +11°C° 0.6 mm 6 mps 741 mmHg 88%
    17:00 +11°C° 0.6 mm 6 mps 741 mmHg 92%
    18:00 +10°C° 0.6 mm 5 mps 741 mmHg 95%
    19:00 +10°C° 0.3 mm 5 mps 742 mmHg 94%
    20:00 +10°C° 0.3 mm 5 mps 742 mmHg 94%
    21:00 +10°C° 0.3 mm 5 mps 743 mmHg 94%
    22:00 +10°C° 0 mm 5 mps 743 mmHg 93%
    23:00 +10°C° 0 mm 4 mps 743 mmHg 93%

    8 June, Monday

    Time Temperature Precipitation Wind Pressure Humidity
    00:00 +10°C° 0 mm 3 mps 743 mmHg 92%
    01:00 +10°C° 0 mm 3 mps 744 mmHg 92%
    02:00 +10°C° 0 mm 3 mps 744 mmHg 91%
    03:00 +10°C° 0 mm 3 mps 744 mmHg 91%
    04:00 +10°C° 0 mm 3 mps 744 mmHg 90%
    05:00 +10°C° 0 mm 3 mps 745 mmHg 89%
    06:00 +10°C° 0 mm 3 mps 745 mmHg 89%
    07:00 +11°C° 0 mm 4 mps 745 mmHg 86%
    08:00 +11°C° 0 mm 4 mps 746 mmHg 84%
    09:00 +12°C° 0 mm 4 mps 746 mmHg 81%
    10:00 +13°C° 0 mm 5 mps 746 mmHg 78%
    11:00 +14°C° 0 mm 5 mps 746 mmHg 75%
    12:00 +14°C° 0 mm 5 mps 746 mmHg 71%
    13:00 +15°C° 0.1 mm 5 mps 746 mmHg 70%
    14:00 +15°C° 0.1 mm 5 mps 746 mmHg 69%
    15:00 +15°C° 0.1 mm 5 mps 746 mmHg 68%
    16:00 +15°C° 0.1 mm 5 mps 747 mmHg 71%
    17:00 +14°C° 0.1 mm 5 mps 747 mmHg 75%
    18:00 +14°C° 0.1 mm 5 mps 747 mmHg 78%
    19:00 +12°C° 0 mm 4 mps 747 mmHg 82%
    20:00 +11°C° 0 mm 3 mps 748 mmHg 86%
    21:00 +10°C° 0 mm 2 mps 748 mmHg 90%
    22:00 +9°C° 0 mm 2 mps 748 mmHg 90%
    23:00 +8°C° 0 mm 2 mps 749 mmHg 91%
    Show more